Lid_Strength_Index
2 3 4 4 4 5 5 5 5 5 4 4 3 3 3 4 3 3 3 3 3 3 2 2 3 5 5 8 9 5 3 3 4 4 5 7 8 8 10 9 9 9 8 7 6 6 5
2 3 4 4 4 5 5 5 5 5 4 4 4 4 4 4 3 3 3 3 3 3 2 2 3 3 6 11 5 4 5 5 5 5 5 6 7 7 9 9 9 8 8 7 6 6 6
3 2 3 4 4 5 5 5 5 5 5 4 5 4 4 4 3 3 3 3 3 3 3 3 4 5 8 9 5 4 5 5 5 5 6 5 5 6 8 8 8 8 9 8 7 7 7
3 3 3 3 4 4 5 5 5 5 5 4 5 4 4 4 3 4 4 3 4 4 3 4 5 5 9 6 4 5 5 5 4 4 5 5 5 6 7 7 8 9 8 10 8 7 7
3 3 3 3 4 4 4 4 5 5 5 5 5 4 4 4 4 4 4 4 4 4 4 4 6 6 10 4 7 5 5 7 5 5 4 5 5 7 7 9 9 9 12 11 10 7 7
2 2 2 2 3 3 4 4 4 5 6 5 5 4 4 4 4 4 5 5 5 5 5 6 6 8 8 9 7 6 5 6 7 6 6 6 6 8 8 9 14 12 12 11 11 9 8
2 2 2 2 2 3 3 4 4 4 6 5 5 5 4 4 4 5 6 6 8 8 7 10 10 10 9 7 6 7 6 6 6 7 9 7 10 12 11 10 10 10 11 12 11 9 10
2 2 2 2 2 3 3 3 3 4 5 6 5 5 5 4 5 4 5 8 8 8 12 10 9 9 9 7 10 8 6 9 8 10 8 9 12 10 9 9 10 10 11 11 11 10 10
2 2 2 3 2 3 3 3 3 4 5 6 6 5 5 5 6 5 6 8 6 6 11 13 11 10 10 8 10 10 8 9 10 10 10 11 11 9 10 10 11 10 12 12 12 11 10
2 2 3 3 3 3 3 3 3 4 5 6 6 6 6 7 7 7 8 6 5 6 11 14 13 11 9 9 11 8 8 9 10 11 10 11 9 10 10 11 10 12 9 11 12 13 14
2 3 3 3 3 3 3 3 3 4 5 6 6 6 6 5 8 8 7 6 6 7 18 14 13 9 10 11 11 10 8 9 11 12 10 12 11 11 11 11 10 11 9 11 11 13 12
2 3 3 3 3 3 3 3 3 4 5 6 6 6 7 7 7 8 6 6 7 14 19 15 14 13 13 12 12 10 10 9 10 11 10 11 10 10 11 10 10 9 11 11 12 13 17
2 3 3 3 3 3 3 3 3 4 5 6 7 7 7 7 9 7 7 8 14 17 16 15 15 14 14 14 13 12 13 14 14 14 14 12 12 10 9 11 10 10 12 17 18 18 18
2 3 3 3 3 3 3 3 3 4 5 6 7 7 8 8 7 7 9 11 17 16 15 15 15 15 15 15 14 13 13 14 13 13 13 14 15 12 10 12 13 12 12 17 21 19 16
2 2 3 3 3 3 3 3 4 4 5 6 7 7 7 8 7 8 10 16 15 14 15 15 16 16 16 15 14 14 14 14 14 13 14 14 14 12 11 11 10 12 14 11 16 16 18
2 2 3 3 3 3 3 4 4 5 5 6 8 8 9 8 8 9 13 14 15 15 15 15 14 16 15 16 15 15 15 13 14 12 11 14 15 14 12 11 10 11 10 15 14 19 20
2 2 3 3 3 3 4 4 4 5 5 6 8 10 9 8 9 10 16 15 16 15 13 15 15 16 16 16 15 16 15 13 12 13 11 14 14 13 13 13 14 12 13 12 13 15 18
2 2 2 3 3 3 3 3 4 5 6 7 9 15 8 8 14 16 16 16 14 14 13 15 15 15 15 15 16 15 15 14 12 12 13 12 14 15 14 12 12 12 13 13 15 17 15
2 2 2 3 3 3 3 3 4 4 6 8 13 11 8 9 15 16 16 15 14 14 14 15 15 14 14 15 16 15 15 13 12 12 13 12 14 15 15 14 12 13 12 11 12 14 16
4 3 2 2 2 3 3 4 4 5 5 8 13 16 12 11 12 14 15 15 16 13 13 13 14 14 15 16 15 16 15 13 12 12 11 11 14 16 16 14 13 16 15 12 13 15 14
5 4 4 2 2 3 3 3 4 5 5 8 12 15 15 16 16 13 13 14 15 16 13 13 14 14 15 17 17 17 15 14 13 12 12 13 16 18 16 15 15 15 15 14 14 13 15
5 4 4 3 3 3 3 3 4 4 5 9 15 14 12 14 12 13 14 15 14 15 14 15 15 14 14 16 15 16 15 14 14 13 14 13 16 17 19 18 16 17 15 15 15 14 14
5 5 5 4 4 3 3 3 4 4 5 10 11 11 11 14 14 13 14 13 14 13 13 12 13 14 15 14 14 14 13 13 13 14 14 15 16 18 17 19 20 18 17 15 14 13 14
5 5 5 5 5 4 3 3 4 5 5 8 10 10 11 16 15 14 13 14 14 13 15 14 13 14 14 12 13 13 14 14 14 14 13 16 17 18 18 18 17 12 12 12 13 12 11
6 6 5 5 5 5 4 3 4 5 4 7 9 8 9 15 14 14 14 15 15 14 15 14 14 14 13 14 16 17 17 18 19 17 15 15 16 18 20 18 14 15 15 14 14 12 10
7 6 6 5 5 4 4 3 4 4 4 7 8 6 7 13 13 10 13 13 15 15 15 15 14 14 14 16 15 18 18 18 21 20 16 16 16 18 20 20 17 13 12 10 10 13 8
7 6 5 5 5 4 4 4 3 4 4 5 8 6 7 12 11 10 12 13 12 13 15 15 16 16 15 16 17 18 17 21 19 21 22 19 18 20 20 20 16 12 11 10 14 12 9
8 7 5 5 5 4 4 4 4 4 4 4 7 6 7 10 11 10 9 12 12 12 14 15 15 16 16 17 16 15 18 20 19 18 20 19 20 21 19 20 20 11 12 13 9 9 8
7 7 7 6 5 4 4 4 4 4 3 3 8 6 6 8 11 10 9 9 8 9 13 13 12 15 14 15 15 15 18 21 18 18 18 19 16 17 17 17 14 12 10 8 9 8 9